Theta_e
305 304 304 304 304 304 304 304 303 301 301 303 304 305 304 304 304 303 299 298 298 299 301 302 306 308 306 306 307 302 306 306 308 311 317 314 313 309 310 312 314 317 318 317 316 315 315
304 305 304 304 304 303 303 302 301 301 302 303 304 304 303 302 303 301 298 296 297 298 299 301 306 307 306 305 303 305 306 307 308 311 310 314 311 308 312 314 314 316 317 317 316 316 314
305 305 305 305 304 303 302 302 301 302 302 303 304 302 301 301 300 299 298 296 297 298 302 305 306 308 306 305 302 303 305 308 308 308 310 309 308 306 308 314 316 316 315 315 315 313 313
304 304 304 304 303 303 302 303 302 301 302 303 302 301 300 299 298 298 297 296 300 307 306 307 307 308 308 304 307 309 308 308 308 307 309 309 310 306 308 313 315 317 315 315 315 314 314
303 304 304 304 303 304 303 303 302 302 302 301 301 300 299 298 297 297 296 301 307 308 308 308 308 308 311 311 311 309 309 308 307 310 311 312 310 306 307 313 314 316 316 316 316 315 315
303 303 303 303 303 303 303 303 303 303 302 300 300 299 298 297 297 297 298 307 308 311 310 309 310 311 311 312 309 308 308 308 307 312 314 311 309 305 305 311 318 317 317 315 315 315 315
303 302 302 303 302 302 302 302 302 301 303 301 300 298 298 297 297 296 302 307 307 306 306 307 312 313 312 311 309 307 307 310 314 315 316 313 310 312 305 308 313 315 316 316 316 315 316
302 302 302 302 302 302 302 301 301 301 300 301 300 298 298 297 297 297 304 306 307 308 308 306 307 307 308 308 308 308 308 310 315 316 317 317 315 312 309 308 310 314 316 317 316 316 317
301 301 302 302 302 302 302 302 301 299 298 298 299 298 298 297 296 301 299 303 303 307 306 307 307 307 307 307 307 308 306 312 315 318 318 319 318 317 313 312 312 311 312 316 317 316 317
300 301 300 301 301 300 300 299 299 299 298 298 297 298 298 297 299 297 301 302 304 307 309 309 310 311 309 309 309 308 307 312 314 316 318 319 318 318 318 316 316 320 311 311 315 317 320
300 299 299 299 300 298 298 299 299 298 298 298 297 299 298 296 298 299 300 300 304 307 306 310 311 310 310 310 309 308 307 306 308 317 317 317 319 320 319 317 317 318 320 319 319 318 317
298 298 298 298 299 299 298 297 297 298 297 298 296 298 298 297 297 297 298 301 306 310 308 310 311 311 311 310 311 307 307 307 307 309 316 315 317 318 317 318 318 320 320 320 317 317 321
298 297 297 297 298 299 299 298 298 298 297 298 297 297 298 298 297 296 298 301 306 309 306 310 310 311 311 312 311 310 308 306 306 306 307 308 314 316 318 320 318 319 321 323 325 322 324
296 297 297 298 298 298 298 298 298 296 297 297 298 296 296 295 295 296 298 304 307 306 308 308 307 308 308 308 310 311 309 306 305 304 307 308 312 311 318 318 320 319 322 324 330 328 324
296 295 297 297 298 297 297 297 297 295 296 297 297 296 297 295 296 298 300 299 303 303 305 306 306 307 306 307 307 311 311 311 308 304 307 311 315 312 315 316 316 319 324 320 322 322 326
295 295 296 296 296 296 297 296 297 296 297 296 297 297 297 296 296 299 301 299 302 302 303 303 306 308 308 308 309 309 312 317 319 315 308 310 314 312 313 315 316 318 319 324 326 329 329
294 295 296 296 295 296 296 296 296 296 296 296 296 295 296 297 297 301 301 299 300 300 300 304 305 306 307 308 307 310 316 317 315 315 314 315 313 312 313 315 318 319 322 321 322 325 329
294 294 296 296 296 295 296 296 296 297 296 296 295 293 296 298 299 301 300 300 301 300 301 302 305 306 307 306 307 307 311 313 310 311 315 312 316 319 315 312 313 318 321 322 326 326 324
294 295 296 295 295 296 296 295 296 295 296 296 298 294 295 296 300 298 300 301 301 301 301 301 305 304 304 305 306 308 309 311 309 311 311 309 314 319 316 315 313 317 318 321 322 322 327
294 293 294 295 295 295 295 295 296 296 295 295 297 294 292 295 296 300 301 302 302 302 302 302 303 304 304 305 306 306 307 311 310 310 311 309 313 318 321 322 319 322 321 319 322 325 324
293 293 294 295 295 295 295 294 295 294 294 296 295 293 294 298 299 299 300 300 301 302 303 303 304 304 303 304 306 306 308 310 311 313 312 311 312 317 316 316 315 318 321 320 322 321 324
294 294 295 295 295 294 294 294 293 293 295 295 295 291 294 295 298 298 299 300 301 303 302 303 305 305 306 307 306 307 310 309 312 311 311 311 312 314 315 314 312 315 320 320 321 323 320
295 295 295 295 295 294 294 295 295 294 294 294 294 295 294 294 295 295 298 299 299 299 303 303 304 304 306 307 308 307 307 308 309 309 311 312 313 311 314 314 313 318 317 319 320 322 323
294 294 294 295 295 295 295 295 295 295 294 294 295 294 295 294 294 295 296 297 297 299 301 302 303 304 305 306 306 306 307 308 308 308 308 309 309 310 312 312 314 316 311 313 321 321 320
294 294 294 294 294 294 295 295 294 293 293 294 294 294 296 294 296 296 297 297 298 300 301 302 303 304 306 305 306 306 304 306 306 308 309 308 308 308 311 313 312 310 315 315 319 318 317
294 295 295 295 295 295 294 294 293 293 293 294 294 294 295 294 294 295 296 298 298 299 300 303 304 303 304 304 306 306 306 306 307 308 306 307 306 306 308 313 313 314 313 313 314 322 316
293 293 294 294 294 294 294 294 294 294 294 294 294 294 295 295 293 294 294 298 299 299 300 303 301 304 301 298 303 304 305 306 306 309 308 306 306 309 308 309 310 312 312 313 315 320 314
293 294 294 294 294 294 293 294 294 294 295 295 294 294 294 296 295 296 297 297 298 300 300 300 301 302 302 298 301 302 301 305 306 306 308 309 309 307 308 309 310 311 314 314 315 313 312
293 293 294 294 294 295 295 295 294 295 296 295 294 294 294 295 292 295 296 296 296 297 298 300 300 300 303 302 303 303 301 299 306 310 311 313 311 310 308 307 310 308 310 310 312 311 310
Wind_Speed
5 5 5 6 5 7 9 9 10 13 16 15 14 15 16 19 21 26 28 29 29 27 26 26 20 16 7 3 11 13 13 16 19 9 11 6 6 4 5 6 6 12 15 15 15 17 18
5 6 6 7 7 8 9 10 12 14 15 13 15 17 19 22 24 28 31 29 30 30 27 25 17 10 1 4 5 3 7 15 12 10 10 6 2 3 6 7 9 7 12 17 16 20 11
6 7 7 6 7 10 10 10 11 13 12 14 15 17 21 25 28 32 32 31 32 30 30 22 12 3 5 16 11 15 22 15 14 13 4 3 4 3 3 5 2 4 9 13 15 8 9
7 7 6 7 11 12 11 11 11 12 14 14 15 18 23 28 34 34 32 32 32 30 22 8 5 6 8 16 17 22 16 18 15 13 14 11 6 3 4 4 6 4 3 6 7 6 10
5 6 7 9 9 8 8 10 12 15 15 16 17 20 24 30 34 32 31 30 27 23 10 7 8 5 9 11 6 11 10 9 9 5 4 11 2 2 5 1 3 3 5 6 8 8 7
6 7 8 9 10 9 10 10 12 15 15 16 16 20 24 30 34 31 29 32 16 7 11 9 5 2 7 3 8 21 12 9 3 2 4 2 3 1 3 4 8 5 4 5 9 1 7
8 8 9 8 8 9 11 13 14 16 14 16 16 20 23 28 33 25 28 12 6 4 3 8 6 6 7 7 13 8 12 2 3 3 3 1 3 11 10 7 6 7 9 9 13 8 9
8 8 9 9 10 10 10 10 12 15 15 14 17 20 22 29 32 20 13 5 14 13 12 14 19 23 30 20 10 15 14 5 4 4 2 1 9 9 9 9 10 9 9 14 16 10 6
7 8 9 9 10 11 11 12 11 13 14 15 17 19 21 29 29 7 12 13 22 16 4 12 7 7 8 17 10 11 7 6 4 5 5 5 3 6 12 12 11 8 10 12 14 15 13
8 8 9 9 10 10 12 12 11 13 15 17 17 17 19 27 6 22 4 25 22 13 4 8 6 6 5 7 5 13 15 7 5 9 6 5 3 7 8 10 7 9 12 16 19 11 5
6 7 8 9 9 11 10 10 12 14 16 16 16 15 15 15 19 10 13 25 21 2 5 3 4 10 8 6 4 3 7 4 6 5 5 4 2 5 9 14 10 12 7 5 5 5 3
7 8 9 10 10 11 12 11 13 15 16 15 14 14 14 15 14 17 20 23 5 1 7 4 5 7 5 5 2 4 3 2 4 5 4 7 3 4 8 11 8 10 7 5 5 4 4
7 8 9 11 11 11 11 11 13 16 16 15 13 13 12 15 5 21 20 10 2 4 7 2 5 6 10 7 5 7 7 7 6 3 5 3 14 6 4 4 9 8 2 1 3 3 5
8 9 9 10 10 12 13 11 12 15 15 14 14 16 16 22 23 18 14 1 6 5 8 12 10 9 7 4 6 10 8 5 5 3 2 4 6 11 9 9 9 11 6 4 5 1 2
10 12 11 9 10 8 8 10 14 15 14 14 14 17 12 24 12 6 1 3 6 5 5 12 15 4 3 4 6 6 10 6 7 10 7 2 4 2 11 7 9 5 6 3 3 2 1
10 11 11 10 10 10 11 12 13 13 12 12 9 6 14 16 15 6 4 7 5 4 8 7 4 8 9 8 8 6 8 1 4 2 5 3 4 5 6 6 5 7 4 3 3 3 4
11 12 10 12 13 13 13 11 12 12 10 8 5 3 11 10 8 3 8 6 7 10 9 5 4 7 7 5 8 7 2 2 3 4 6 3 3 6 4 8 11 4 4 3 1 2 1
14 13 13 11 12 12 13 12 12 11 9 4 1 2 6 9 4 2 9 4 8 13 9 6 7 8 8 5 3 5 3 3 4 5 3 1 1 4 6 9 4 8 8 7 2 5 4
13 13 13 12 12 13 13 13 13 12 8 2 2 3 12 8 2 6 5 11 12 14 14 5 5 2 9 6 4 3 4 2 1 3 4 2 2 3 6 3 3 4 9 13 5 2 5
12 14 13 11 12 14 14 13 12 12 9 9 2 2 4 2 2 5 4 8 11 7 12 11 12 13 11 5 4 5 6 1 1 3 6 4 1 2 3 3 3 6 6 8 9 3 2
14 14 13 14 14 14 14 14 13 13 8 9 3 4 3 2 2 4 8 5 12 12 4 9 5 12 11 5 6 6 2 5 6 4 4 3 1 2 7 12 12 12 8 12 16 12 6
16 15 14 15 16 17 16 14 13 12 7 9 2 2 2 3 7 7 7 3 8 9 9 13 6 15 7 4 4 8 4 1 2 5 3 4 1 3 3 5 8 7 13 12 13 16 14
17 17 17 18 18 16 14 14 14 13 11 4 5 1 3 3 3 5 5 5 12 11 9 8 13 12 8 6 2 4 4 5 3 3 2 2 1 2 3 7 9 5 3 10 8 7 11
17 17 18 17 17 17 18 18 18 16 14 12 5 3 2 4 4 4 9 14 17 13 7 13 13 3 5 5 5 4 4 6 5 4 4 3 2 2 3 5 3 4 13 11 13 9 8
20 19 19 19 19 19 18 19 19 19 15 17 12 3 2 4 1 4 5 8 10 7 8 10 7 5 4 4 2 2 3 3 5 9 9 9 4 2 3 3 6 10 4 5 4 3 7
19 20 20 19 19 20 20 20 19 18 17 17 17 16 3 2 5 12 3 5 4 4 5 4 6 5 4 1 2 3 3 3 2 4 10 6 3 3 2 2 4 3 6 14 6 2 10
20 20 20 21 23 24 24 24 22 20 18 19 10 23 6 3 3 4 3 2 4 3 3 3 8 4 2 2 2 2 3 2 3 2 1 3 2 10 4 3 6 6 2 6 2 2 5
21 22 25 25 26 26 26 26 26 25 22 21 16 20 14 2 4 3 2 3 0 4 1 4 5 4 2 1 2 2 3 4 2 4 3 5 4 3 3 3 8 11 7 5 4 3 9
23 26 27 25 25 26 28 29 28 27 26 25 12 20 23 4 4 7 14 17 21 18 2 1 3 2 2 1 1 2 2 2 2 2 4 3 4 2 6 4 6 13 11 12 10 11 8
Wind_Direction
299 305 311 321 328 326 327 331 332 338 339 332 332 335 338 338 334 327 323 320 319 318 317 317 319 329 356 3 249 247 260 301 323 246 223 222 206 172 207 204 217 243 249 259 257 257 256
290 294 300 309 312 318 317 323 330 336 335 331 332 334 335 335 333 328 324 320 316 313 313 315 315 329 123 292 262 336 317 302 292 233 262 229 263 247 268 243 220 251 236 246 253 255 253
298 302 289 298 307 315 315 312 320 328 329 334 332 335 336 335 332 329 324 317 313 310 311 308 296 273 258 249 285 295 291 286 285 279 238 241 359 71 304 308 321 245 260 273 258 259 251
284 297 296 302 305 303 307 311 317 332 336 328 334 333 332 333 328 326 323 319 317 313 318 281 204 186 248 268 312 295 292 290 286 276 254 282 310 245 205 273 325 264 212 246 262 240 264
298 309 313 308 305 311 321 321 325 328 327 330 331 335 334 335 330 329 325 323 319 322 294 155 150 173 263 301 252 326 274 245 274 301 296 292 66 232 311 198 322 247 249 265 287 244 256
285 298 299 292 306 322 330 335 326 328 319 328 331 334 333 335 330 331 329 328 336 81 79 131 128 281 256 248 2 324 320 230 230 327 334 94 83 200 313 148 223 222 258 253 250 294 338
282 292 297 300 307 317 318 320 321 318 322 322 330 333 333 332 334 333 338 350 10 336 14 243 212 237 286 294 324 311 301 133 76 59 172 285 145 220 217 232 216 262 267 278 286 291 322
291 292 292 300 308 314 314 321 322 324 324 323 327 331 331 332 331 333 6 28 1 307 296 266 249 255 255 272 292 283 283 176 153 174 144 330 244 239 234 256 253 244 261 273 286 292 262
301 297 301 313 316 309 311 313 310 319 328 325 327 327 330 331 330 346 343 359 348 349 289 296 240 221 232 186 221 270 189 183 163 170 192 202 242 266 230 244 253 255 254 262 266 295 288
294 291 302 307 316 312 307 309 309 316 322 325 322 324 332 334 343 334 322 344 348 355 291 274 218 226 177 152 226 222 178 161 218 198 181 235 264 231 257 237 214 264 251 260 262 263 271
310 320 320 322 327 321 315 312 314 312 318 323 320 319 326 339 310 312 325 334 335 4 329 196 168 163 156 171 148 219 159 117 207 182 139 244 218 173 227 243 243 255 319 313 340 320 291
309 315 320 322 321 320 317 316 313 312 316 314 315 313 319 323 308 283 321 329 331 70 251 272 143 180 148 220 222 116 150 167 183 177 232 237 202 208 221 259 266 301 324 264 218 178 242
306 315 313 312 308 308 311 319 315 308 313 306 306 299 304 294 268 315 331 335 77 217 316 209 206 178 203 204 192 170 174 180 182 152 254 277 237 193 174 222 247 241 312 252 255 209 227
307 316 310 317 302 302 298 306 311 314 309 301 298 301 294 278 286 293 321 13 216 251 270 343 345 286 201 207 205 174 143 196 244 141 357 196 307 192 173 204 191 217 193 164 200 267 302
305 305 312 312 312 320 318 309 307 311 306 305 306 307 287 287 281 257 228 209 218 211 351 344 323 273 282 293 210 161 190 196 197 174 187 253 265 97 169 181 180 200 199 268 6 225 260
301 301 299 304 311 304 305 307 309 308 304 311 316 308 268 312 254 170 213 242 239 259 8 353 310 335 354 334 338 183 180 342 132 103 205 280 290 249 201 170 211 186 122 145 178 210 205
304 301 297 296 298 286 292 292 300 306 309 315 315 352 288 305 171 187 221 233 285 273 298 318 312 292 317 351 339 328 66 120 107 358 4 24 184 287 0 194 195 235 159 160 235 219 243
292 290 289 289 292 289 285 274 284 291 305 293 263 282 248 12 176 218 225 221 256 282 292 278 281 267 279 331 310 310 28 116 156 133 162 226 251 263 241 252 180 161 185 174 182 179 207
287 282 280 282 286 285 287 272 277 282 277 208 257 255 282 174 250 229 258 253 249 271 273 261 276 341 314 312 305 298 3 330 164 94 145 287 323 320 319 302 124 160 204 204 181 59 221
271 279 283 281 281 281 276 274 274 277 265 211 239 290 307 75 205 277 302 265 254 278 263 248 262 284 290 315 324 288 294 219 344 139 164 102 196 271 273 339 285 293 156 220 192 188 199
269 270 267 275 275 273 273 269 274 273 245 193 195 233 212 304 340 322 270 255 292 297 294 326 293 239 259 263 311 301 224 356 28 75 65 86 190 24 291 280 279 293 223 259 232 223 208
264 268 268 270 268 269 267 266 268 258 224 196 191 175 347 304 282 275 250 268 298 326 283 292 298 316 327 287 249 288 324 89 83 1 69 359 277 17 285 351 326 287 239 218 246 237 229
265 267 267 264 269 270 263 260 260 253 214 195 206 271 103 252 327 330 302 339 329 325 285 305 272 272 291 292 321 257 241 273 163 128 105 124 279 37 279 330 303 285 208 244 200 229 229
267 269 268 267 267 263 258 256 251 248 226 211 197 172 174 266 208 239 273 295 296 303 309 300 296 223 244 294 264 258 250 245 257 238 169 182 143 100 268 320 276 278 318 261 191 180 204
264 264 264 264 262 260 255 253 253 246 233 218 220 195 218 266 202 292 298 295 307 315 301 266 281 240 135 293 75 293 340 328 253 225 212 199 157 181 215 214 294 300 356 343 183 36 296
269 265 264 262 259 256 255 255 250 247 236 223 221 215 203 238 243 249 269 281 294 310 318 288 298 336 91 284 89 201 198 236 255 275 217 181 160 152 168 231 256 270 326 4 360 89 327
266 266 264 262 258 257 255 255 252 244 238 222 223 215 211 252 252 199 203 232 325 303 279 354 332 300 50 56 116 155 228 244 245 264 232 143 175 211 211 249 285 277 298 32 25 133 356
265 267 267 266 264 263 261 256 250 240 229 219 221 211 196 252 269 264 202 189 39 262 318 333 311 13 326 55 125 249 186 236 214 225 219 173 163 179 175 221 266 334 311 141 138 42 94
270 274 274 272 270 265 261 254 247 235 226 212 215 208 214 220 251 299 254 251 235 246 233 250 188 253 296 281 43 304 312 353 192 280 28 220 182 233 173 206 76 37 51 40 95 113 81